Location: Le Rocchette
(44.3500°N, 7.8333°E)
Time: 09:36:52
(UTC+00:00)

Cosmos 990 Rocket - Pass Details

Date: 17 November 2019
Orbit: 746 x 770 km, 74.0° (Epoch: 15 December)

Event Time Altitude Azimuth Distance (km) Brightness Sun altitude
Exits shadow 04:46:48 24° 242° (WSW) 1,530 5.1 -17.8°
Maximum altitude 04:49:26 41° 297° (WNW) 1,084 4.3 -17.3°
Drops below altitude 10° 04:54:22 10° 8° (N) 2,301 6.5 -16.4°
Sets 04:56:53 0° 16° (NNE) 3,235 7.3 -16.0°
